Regional Weather Roundup
Issued by NWS

Home | Current Version | Previous Version | Text Only | Print | Product List | Glossary Off
Versions: 1 2 3 4 5 6 7 8 9 10 11 12 13 14 15 16 17 18 19 20 21 22 23 24 25 26 27 28 29 30 31 32 33 34 35 36 37 38 39 40 41 42 43 44 45 46 47 48 49 50

000
ASUS43 KLMK 280610
RWRKY
KENTUCKY REGIONAL WEATHER ROUNDUP
NATIONAL WEATHER SERVICE LOUISVILLE KY
200 AM EDT SUN MAY 28 2017

NOTE "FAIR" INDICATES FEW OR NO CLOUDS BELOW 12,000 FEET
WITH NO SIGNIFICANT WEATHER AND/OR OBSTRUCTIONS TO VISIBILITY.

KYZ001>023-026-027-061>063-070>075-280700-
WESTERN AND SOUTH CENTRAL KENTUCKY

CITY           SKY/WX    TMP DP  RH WIND       PRES   REMARKS
PADUCAH        LGT RAIN  65  61  87 SE17      29.77F
HENDERSON      LGT RAIN  66  62  87 S15       29.82F
OWENSBORO      CLOUDY    66  63  90 S12       29.86R
HOPKINSVILLE   LGT RAIN  64  64 100 S7        29.92F
BOWLING GREEN  CLOUDY    66  64  93 SW8       29.94R
GLASGOW        CLOUDY   N/A N/A N/A SW6       29.91R
$$

KYZ024-025-028>034-038-045-046-053-280700-
NORTH CENTRAL KENTUCKY

CITY           SKY/WX    TMP DP  RH WIND       PRES   REMARKS
LOUISVILLE/SDF CLOUDY    67  63  87 S10       29.81F
LOUISVILLE/LOU CLOUDY    66  64  93 S6        29.82F
FORT KNOX      CLOUDY    63  63  98 S9        29.84R
$$

KYZ035>037-039>044-047>052-055>060-089>105-280700-
NORTHEAST KENTUCKY

CITY           SKY/WX    TMP DP  RH WIND       PRES   REMARKS
LEXINGTON      CLOUDY    64  59  83 SE10      29.82F
COVINGTON      MOCLDY    66  62  87 S6        29.80F
FRANKFORT      CLOUDY    64  60  87 S5        29.82F
$$

KYZ054-064>069-076>088-106>120-280700-
SOUTHEAST KENTUCKY

CITY           SKY/WX    TMP DP  RH WIND       PRES   REMARKS
JACKSON        FOG       64  63  96 S6        29.88F VSB 1
LONDON         CLOUDY    62  59  90 CALM      29.89
SOMERSET       CLOUDY    61  61 100 W12       29.91R
MIDDLESBORO    CLOUDY    63  62  97 SW3       29.92F
MONTICELLO     MOCLDY    63  61  93 W12       29.93R
$$





USA.gov is the U.S. government's official web portal to all federal, state and local government web resources and services.